CW7410 Weather Reports


Display with metric or nautical units.
time (UTC)temp
F
wind
direction
speed
MPH
gust
MPH
rain 1hr
in
rain 24hr
in
rain mn
in
humidity
%
barometer
mb
20260509105038 59 319 3.0 8.0 0.00 0.00 0.00 36 1016.7
20260509104548 59 333 4.0 9.0 0.00 0.00 0.00 35 1016.7
20260509104039 59 298 4.0 9.0 0.00 0.00 0.00 34 1016.7
20260509103538 59 330 4.0 12.0 0.00 0.00 0.00 34 1016.7
20260509103053 59 312 5.0 14.0 0.00 0.00 0.00 34 1016.7
20260509102538 59 348 7.0 15.0 0.00 0.00 0.00 33 1016.7
20260509102039 59 346 9.0 15.0 0.00 0.00 0.00 34 1016.7
20260509101554 58 335 10.0 15.0 0.00 0.00 0.00 35 1016.6
20260509101038 58 331 8.0 13.0 0.00 0.00 0.00 35 1016.5
20260509100538 58 328 5.0 15.0 0.00 0.00 0.00 34 1016.3
20260509100048 58 340 7.0 15.0 0.00 0.00 0.00 34 1016.3
20260509095539 58 323 9.0 15.0 0.00 0.00 0.00 34 1016.3
20260509095038 58 344 6.0 11.0 0.00 0.00 0.00 34 1016.3
20260509094551 58 327 5.0 10.0 0.00 0.00 0.00 35 1016.3
20260509094040 58 344 6.0 12.0 0.00 0.00 0.00 33 1016.2
20260509093540 58 355 5.0 12.0 0.00 0.00 0.00 34 1016.1
20260509093052 58 329 6.0 12.0 0.00 0.00 0.00 33 1016.1
20260509092538 58 355 5.0 11.0 0.00 0.00 0.00 33 1016.1
20260509092038 58 348 6.0 9.0 0.00 0.00 0.00 34 1016.1
20260509091554 59 346 6.0 10.0 0.00 0.00 0.00 34 1016.1
20260509091041 59 331 6.0 11.0 0.00 0.00 0.00 34 1016.0
20260509090539 60 355 7.0 12.0 0.00 0.00 0.00 34 1015.9
20260509090047 60 336 7.0 12.0 0.00 0.00 0.00 33 1015.8
20260509085537 60 355 7.0 13.0 0.00 0.00 0.00 33 1015.8
20260509085038 61 335 8.0 13.0 0.00 0.00 0.00 32 1015.9
20260509084552 61 348 10.0 15.0 0.00 0.00 0.00 33 1015.8
20260509084039 61 5 8.0 15.0 0.00 0.00 0.00 33 1015.8
20260509083539 61 9 9.0 14.0 0.00 0.00 0.00 33 1015.7
20260509083052 61 331 9.0 14.0 0.00 0.00 0.00 34 1015.7
20260509082539 60 331 9.0 14.0 0.00 0.00 0.00 34 1015.6
20260509082038 60 345 8.0 14.0 0.00 0.00 0.00 35 1015.5
20260509081551 60 11 8.0 14.0 0.00 0.00 0.00 36 1015.4
20260509081039 60 344 8.0 14.0 0.00 0.00 0.00 36 1015.4
20260509080538 59 325 7.0 12.0 0.00 0.00 0.00 37 1015.3
20260509080045 59 331 7.0 12.0 0.00 0.00 0.00 38 1015.3
20260509075538 59 342 7.0 12.0 0.00 0.00 0.00 39 1015.2
20260509075038 59 355 6.0 11.0 0.00 0.00 0.00 39 1015.3
20260509074555 59 338 6.0 11.0 0.00 0.00 0.00 41 1015.2
20260509074038 59 360 6.0 11.0 0.00 0.00 0.00 41 1015.2
20260509073538 58 355 6.0 9.0 0.00 0.00 0.00 42 1015.3
20260509073101 58 303 5.0 9.0 0.00 0.00 0.00 43 1015.1
20260509072538 58 355 5.0 8.0 0.00 0.00 0.00 43 1015.2
20260509072039 58 323 5.0 8.0 0.00 0.00 0.00 43 1015.2
20260509071553 58 339 4.0 8.0 0.00 0.00 0.00 44 1015.1
20260509071039 58 360 4.0 7.0 0.00 0.00 0.00 44 1015.1
20260509070539 59 360 2.0 5.0 0.00 0.00 0.00 44 1015.0
20260509070049 59 360 3.0 5.0 0.00 0.00 0.00 45 1015.1
20260509065538 59 360 2.0 4.0 0.00 0.00 0.00 44 1015.0
20260509065040 59 336 2.0 5.0 0.00 0.00 0.00 43 1015.0
20260509064559 59 339 2.0 6.0 0.00 0.00 0.00 42 1014.8
20260509064038 60 352 3.0 6.0 0.00 0.00 0.00 42 1014.7
20260509063538 60 350 2.0 9.0 0.00 0.00 0.00 41 1014.7
20260509063050 60 346 4.0 9.0 0.00 0.00 0.00 42 1014.7
20260509062542 60 355 4.0 9.0 0.00 0.00 0.00 42 1014.7
20260509062040 60 334 5.0 9.0 0.00 0.00 0.00 41 1014.5
20260509061551 60 344 5.0 10.0 0.00 0.00 0.00 43 1014.5
20260509061037 59 327 6.0 10.0 0.00 0.00 0.00 43 1014.5
20260509060538 59 10 5.0 10.0 0.00 0.00 0.00 44 1014.5
20260509060054 59 342 4.0 10.0 0.00 0.00 0.00 44 1014.4
20260509055538 59 325 5.0 9.0 0.00 0.00 0.00 44 1014.4
20260509055038 59 335 4.0 9.0 0.00 0.00 0.00 45 1014.4
20260509054554 59 340 4.0 8.0 0.00 0.00 0.00 46 1014.3
20260509054038 59 332 4.0 6.0 0.00 0.00 0.00 45 1014.4
20260509053539 59 346 4.0 6.0 0.00 0.00 0.00 47 1014.2
20260509053052 59 5 3.0 5.0 0.00 0.00 0.00 47 1014.1
20260509052539 60 5 3.0 5.0 0.00 0.00 0.00 47 1014.1
20260509052038 60 352 3.0 5.0 0.00 0.00 0.00 46 1014.1
20260509051552 60 355 3.0 6.0 0.00 0.00 0.00 46 1014.1
20260509051042 60 355 3.0 6.0 0.00 0.00 0.00 47 1014.1
20260509050542 60 352 3.0 7.0 0.00 0.00 0.00 46 1014.2
20260509050056 60 360 4.0 8.0 0.00 0.00 0.00 46 1014.2
20260509045541 60 352 5.0 8.0 0.00 0.00 0.00 47 1014.2
20260509045041 60 360 5.0 8.0 0.00 0.00 0.00 45 1014.2
20260509044546 61 360 4.0 6.0 0.00 0.00 0.00 45 1014.3
20260509044041 61 360 3.0 5.0 0.00 0.00 0.00 44 1014.2
20260509043538 61 360 3.0 5.0 0.00 0.00 0.00 44 1014.2
20260509043055 62 360 3.0 4.0 0.00 0.00 0.00 45 1014.1
20260509042538 62 360 3.0 8.0 0.00 0.00 0.00 46 1014.2
20260509042040 62 330 2.0 8.0 0.00 0.00 0.00 46 1014.1
20260509041551 62 300 4.0 10.0 0.00 0.00 0.00 42 1014.1
20260509041039 61 304 4.0 10.0 0.00 0.00 0.00 42 1014.1
20260509040540 61 309 6.0 10.0 0.00 0.00 0.00 43 1014.1
20260509040054 61 281 2.0 9.0 0.00 0.00 0.00 47 1013.9
20260509035539 61 25 3.0 9.0 0.00 0.00 0.00 46 1013.8
20260509035041 61 331 5.0 9.0 0.00 0.00 0.00 42 1013.7
20260509034554 62 338 2.0 4.0 0.00 0.00 0.00 44 1013.6
20260509034041 62 79 3.0 4.0 0.00 0.00 0.00 44 1013.5
20260509033540 63 65 0.0 3.0 0.00 0.00 0.00 45 1013.5
20260509033054 63 41 1.0 5.0 0.00 0.00 0.00 46 1013.4
20260509032541 63 57 2.0 5.0 0.00 0.00 0.00 45 1013.2
20260509032039 64 70 1.0 5.0 0.00 0.00 0.00 43 1013.1
20260509031558 64 71 1.0 3.0 0.00 0.00 0.00 42 1013.1
20260509031041 65 94 2.0 4.0 0.00 0.00 0.00 40 1013.0
20260509030541 65 130 1.0 4.0 0.00 0.00 0.00 39 1013.0
20260509030053 66 131 2.0 6.0 0.00 0.00 0.00 39 1012.9
20260509025540 66 360 3.0 6.0 0.00 0.00 0.00 39 1012.9
20260509025040 67 360 4.0 6.0 0.00 0.00 0.00 40 1012.9
20260509024549 67 360 2.0 4.0 0.00 0.00 0.00 40 1012.9
20260509024040 68 138 0.0 3.0 0.00 0.00 0.00 43 1012.8
20260509023541 68 117 1.0 4.0 0.00 0.00 0.00 41 1012.8
20260509023049 69 111 1.0 4.0 0.00 0.00 0.00 40 1012.8
20260509022542 70 98 2.0 4.0 0.00 0.00 0.00 37 1012.7
20260509022041 70 360 2.0 4.0 0.00 0.00 0.00 38 1012.7
20260509021549 71 360 1.0 4.0 0.00 0.00 0.00 38 1012.7
20260509021038 72 119 2.0 5.0 0.00 0.00 0.00 36 1012.7
20260509020538 73 128 1.0 5.0 0.00 0.00 0.00 36 1012.7
20260509020050 73 0 1.0 7.0 0.00 0.00 0.00 35 1012.7
20260509015539 74 159 3.0 7.0 0.00 0.00 0.00 34 1012.7
20260509015040 75 146 3.0 5.0 0.00 0.00 0.00 34 1012.7
20260509014548 76 172 1.0 5.0 0.00 0.00 0.00 34 1012.8
20260509014039 76 149 1.0 5.0 0.00 0.00 0.00 32 1012.8
20260509013539 77 150 1.0 5.0 0.00 0.00 0.00 31 1012.8
20260509013056 78 194 2.0 5.0 0.00 0.00 0.00 29 1012.9
20260509012538 78 146 2.0 5.0 0.00 0.00 0.00 29 1012.9
20260509012039 79 123 1.0 5.0 0.00 0.00 0.00 28 1013.0
20260509011551 79 150 1.0 4.0 0.00 0.00 0.00 29 1013.0
20260509011038 79 129 2.0 4.0 0.00 0.00 0.00 28 1013.1
20260509010538 79 122 1.0 7.0 0.00 0.00 0.00 27 1013.1
20260509010046 79 138 2.0 7.0 0.00 0.00 0.00 28 1013.2
20260509005540 79 130 3.0 7.0 0.00 0.00 0.00 28 1013.2
20260509005038 79 164 3.0 6.0 0.00 0.00 0.00 26 1013.2
20260509004601 79 138 2.0 6.0 0.00 0.00 0.00 25 1013.3
20260509004039 79 226 2.0 5.0 0.00 0.00 0.00 25 1013.2
20260509003539 79 193 1.0 5.0 0.00 0.00 0.00 24 1013.3
20260509003053 79 126 0.0 7.0 0.00 0.00 0.00 25 1013.4
20260509002541 79 198 0.0 9.0 0.00 0.00 0.00 24 1013.3
20260509002038 79 199 1.0 10.0 0.00 0.00 0.00 25 1013.3
20260509001555 79 213 5.0 10.0 0.00 0.00 0.00 25 1013.3
20260509001040 79 294 3.0 7.0 0.00 0.00 0.00 24 1013.4
20260509000538 79 11 1.0 6.0 0.00 0.00 0.00 25 1013.4
20260509000051 79 250 2.0 6.0 0.00 0.00 0.00 25 1013.5
20260508235539 79 155 0.0 5.0 0.00 0.00 0.00 24 1013.5
20260508235040 79 322 3.0 9.0 0.00 0.00 0.00 27 1013.6
20260508234550 79 0 1.0 9.0 0.00 0.00 0.00 24 1013.6
20260508234038 79 219 3.0 7.0 0.00 0.00 0.00 25 1013.7
20260508233543 79 208 1.0 6.0 0.00 0.00 0.00 26 1013.7
20260508233054 79 203 2.0 9.0 0.00 0.00 0.00 24 1013.7
20260508232538 79 262 1.0 9.0 0.00 0.00 0.00 25 1013.8
20260508232038 78 202 2.0 9.0 0.00 0.00 0.00 24 1013.8
20260508231557 78 195 2.0 9.0 0.00 0.00 0.00 25 1013.8
20260508231039 78 215 3.0 9.0 0.00 0.00 0.00 25 1013.7
20260508230544 78 257 5.0 9.0 0.00 0.00 0.00 24 1013.8
20260508230055 78 126 2.0 11.0 0.00 0.00 0.00 25 1013.8
20260508225540 77 251 5.0 14.0 0.00 0.00 0.00 26 1014.0
20260508225040 77 244 5.0 14.0 0.00 0.00 0.00 26 1014.0
20260508224556 76 190 5.0 11.0 0.00 0.00 0.00 26 1014.1
20260508224040 76 338 5.0 9.0 0.00 0.00 0.00 27 1014.1
20260508223539 77 70 3.0 11.0 0.00 0.00 0.00 27 1014.2
20260508223052 78 319 4.0 11.0 0.00 0.00 0.00 24 1014.3
20260508222540 77 259 5.0 12.0 0.00 0.00 0.00 25 1014.4
20260508222039 77 281 3.0 13.0 0.00 0.00 0.00 25 1014.4
20260508221553 77 257 5.0 13.0 0.00 0.00 0.00 26 1014.6
20260508221039 77 250 7.0 13.0 0.00 0.00 0.00 25 1014.6
20260508220539 77 260 3.0 13.0 0.00 0.00 0.00 26 1014.6
20260508220059 77 0 4.0 14.0 0.00 0.00 0.00 25 1014.7
20260508215539 77 306 7.0 14.0 0.00 0.00 0.00 26 1014.7
20260508215039 77 329 9.0 14.0 0.00 0.00 0.00 27 1014.8
20260508214603 77 306 1.0 10.0 0.00 0.00 0.00 27 1014.9
20260508214038 76 302 5.0 14.0 0.00 0.00 0.00 25 1014.9
20260508213538 76 304 4.0 14.0 0.00 0.00 0.00 28 1014.9
20260508213050 76 300 7.0 14.0 0.00 0.00 0.00 27 1015.1
20260508212539 76 311 1.0 13.0 0.00 0.00 0.00 27 1015.1
20260508212040 76 287 7.0 14.0 0.00 0.00 0.00 26 1015.2
20260508211548 76 311 5.0 14.0 0.00 0.00 0.00 27 1015.3
20260508211038 76 296 8.0 14.0 0.00 0.00 0.00 26 1015.3
20260508210539 76 180 6.0 14.0 0.00 0.00 0.00 26 1015.3
20260508210055 76 266 4.0 14.0 0.00 0.00 0.00 26 1015.4
20260508205538 76 310 9.0 14.0 0.00 0.00 0.00 27 1015.5
20260508205040 75 231 4.0 13.0 0.00 0.00 0.00 27 1015.5
20260508204553 75 304 5.0 14.0 0.00 0.00 0.00 28 1015.6
20260508204038 75 270 5.0 14.0 0.00 0.00 0.00 27 1015.6
20260508203540 75 296 7.0 14.0 0.00 0.00 0.00 27 1015.8
20260508203053 75 288 7.0 12.0 0.00 0.00 0.00 27 1015.8
20260508202542 75 302 6.0 15.0 0.00 0.00 0.00 28 1015.8
20260508202038 75 229 5.0 15.0 0.00 0.00 0.00 28 1015.7
20260508201552 74 252 9.0 15.0 0.00 0.00 0.00 27 1015.8
20260508201044 74 276 3.0 13.0 0.00 0.00 0.00 28 1015.7
20260508200538 74 280 5.0 12.0 0.00 0.00 0.00 28 1015.8
20260508200053 74 198 6.0 13.0 0.00 0.00 0.00 29 1015.8
20260508195539 73 252 5.0 13.0 0.00 0.00 0.00 30 1015.8
20260508195039 73 28 6.0 13.0 0.00 0.00 0.00 29 1015.8
20260508194550 73 250 8.0 12.0 0.00 0.00 0.00 29 1015.8
20260508194039 73 250 7.0 12.0 0.00 0.00 0.00 31 1015.8
20260508193538 73 227 7.0 14.0 0.00 0.00 0.00 32 1015.9
20260508193110 73 44 6.0 15.0 0.00 0.00 0.00 31 1015.9
20260508192538 73 290 7.0 15.0 0.00 0.00 0.00 32 1015.9
20260508192043 73 308 8.0 15.0 0.00 0.00 0.00 31 1015.9
20260508191555 73 302 6.0 15.0 0.00 0.00 0.00 33 1016.0
20260508191038 72 234 6.0 15.0 0.00 0.00 0.00 32 1016.1
20260508190540 72 249 9.0 15.0 0.00 0.00 0.00 31 1016.1
20260508190105 72 287 6.0 13.0 0.00 0.00 0.00 32 1016.1
20260508185543 72 262 7.0 15.0 0.00 0.00 0.00 33 1016.1
20260508185041 72 247 7.0 15.0 0.00 0.00 0.00 32 1016.2
20260508184558 72 261 6.0 15.0 0.00 0.00 0.00 32 1016.2
20260508184039 72 209 6.0 12.0 0.00 0.00 0.00 32 1016.2
20260508183539 72 225 7.0 12.0 0.00 0.00 0.00 32 1016.3
20260508183111 72 236 7.0 12.0 0.00 0.00 0.00 33 1016.4
20260508182541 71 196 6.0 13.0 0.00 0.00 0.00 35 1016.4
20260508182039 71 201 6.0 13.0 0.00 0.00 0.00 35 1016.5
20260508181553 71 273 7.0 12.0 0.00 0.00 0.00 34 1016.6
20260508181042 71 196 5.0 11.0 0.00 0.00 0.00 37 1016.6
20260508180539 71 269 3.0 11.0 0.00 0.00 0.00 36 1016.6
20260508175539 71 155 4.0 10.0 0.00 0.00 0.00 35 1016.7
20260508175038 71 0 5.0 10.0 0.00 0.00 0.00 35 1016.7
20260508174604 71 244 4.0 10.0 0.00 0.00 0.00 37 1016.8
20260508174038 70 218 3.0 8.0 0.00 0.00 0.00 34 1016.8
20260508173537 70 173 4.0 10.0 0.00 0.00 0.00 38 1016.8
20260508173051 70 257 4.0 11.0 0.00 0.00 0.00 39 1016.9
20260508172541 70 238 2.0 11.0 0.00 0.00 0.00 39 1016.8
20260508172044 69 241 5.0 10.0 0.00 0.00 0.00 38 1016.8
20260508171554 69 286 3.0 10.0 0.00 0.00 0.00 39 1016.9
20260508171042 69 257 3.0 10.0 0.00 0.00 0.00 40 1016.9
20260508170540 69 269 4.0 10.0 0.00 0.00 0.00 41 1016.9
20260508170059 69 260 3.0 9.0 0.00 0.00 0.00 43 1016.8
20260508165539 69 264 5.0 10.0 0.00 0.00 0.00 43 1016.8
20260508165040 69 228 3.0 10.0 0.00 0.00 0.00 46 1016.8
20260508164613 69 224 5.0 10.0 0.00 0.00 0.00 46 1016.8
20260508164038 69 309 6.0 10.0 0.00 0.00 0.00 46 1016.7
20260508163542 68 241 2.0 7.0 0.00 0.00 0.00 47 1016.7
20260508163051 68 225 1.0 8.0 0.00 0.00 0.00 47 1016.6
20260508162538 68 204 1.0 8.0 0.00 0.00 0.00 47 1016.7
20260508162039 68 244 2.0 5.0 0.00 0.00 0.00 47 1016.7
20260508161602 68 224 2.0 4.0 0.00 0.00 0.00 47 1016.7
20260508161038 67 261 1.0 4.0 0.00 0.00 0.00 49 1016.6
20260508160538 67 0 0.0 4.0 0.00 0.00 0.00 49 1016.6
20260508160054 67 218 1.0 6.0 0.00 0.00 0.00 49 1016.7
20260508155539 66 225 1.0 7.0 0.00 0.00 0.00 49 1016.7
20260508155039 66 195 3.0 7.0 0.00 0.00 0.00 50 1016.7
20260508154553 66 0 0.0 4.0 0.00 0.00 0.00 50 1016.5
20260508154040 65 161 0.0 4.0 0.00 0.00 0.00 51 1016.5
20260508153539 64 170 2.0 4.0 0.00 0.00 0.00 52 1016.5
20260508153056 64 48 1.0 3.0 0.00 0.00 0.00 53 1016.5
20260508152538 63 70 1.0 3.0 0.00 0.00 0.00 55 1016.5
20260508152038 63 85 1.0 3.0 0.00 0.00 0.00 55 1016.4
20260508151551 62 77 0.0 3.0 0.00 0.00 0.00 55 1016.4
20260508151039 61 0 0.0 2.0 0.00 0.00 0.00 56 1016.4
20260508150539 60 0 0.0 2.0 0.00 0.00 0.00 57 1016.5
20260508150051 60 0 0.0 2.0 0.00 0.00 0.00 57 1016.4
20260508145540 59 0 0.0 2.0 0.00 0.00 0.00 58 1016.4
20260508145039 59 196 0.0 3.0 0.00 0.00 0.00 59 1016.4
20260508144552 58 211 1.0 3.0 0.00 0.00 0.00 61 1016.3
20260508144040 58 192 0.0 3.0 0.00 0.00 0.00 63 1016.2
20260508143540 57 167 0.0 3.0 0.00 0.00 0.00 64 1016.2
20260508143055 56 0 0.0 3.0 0.00 0.00 0.00 66 1016.2
20260508142539 55 0 0.0 2.0 0.00 0.00 0.00 67 1016.1
20260508142039 54 0 1.0 2.0 0.00 0.00 0.00 68 1016.1
20260508141600 54 0 0.0 2.0 0.00 0.00 0.00 69 1016.1
20260508141038 53 79 1.0 2.0 0.00 0.00 0.00 71 1016.1
20260508140541 52 0 0.0 1.0 0.00 0.00 0.00 71 1016.1
20260508140052 51 0 0.0 1.0 0.00 0.00 0.00 72 1016.0
20260508135540 50 0 0.0 1.0 0.00 0.00 0.00 72 1015.9
20260508135039 50 0 0.0 3.0 0.00 0.00 0.00 73 1015.9
20260508134553 49 0 0.0 3.0 0.00 0.00 0.00 73 1015.8
20260508134039 48 85 0.0 2.0 0.00 0.00 0.00 73 1015.7
20260508133539 47 0 0.0 2.0 0.00 0.00 0.00 73 1015.7
20260508133048 47 0 0.0 2.0 0.00 0.00 0.00 73 1015.6
20260508132539 46 360 0.0 3.0 0.00 0.00 0.00 73 1015.6
20260508132039 45 0 0.0 4.0 0.00 0.00 0.00 72 1015.5
20260508131603 45 89 1.0 4.0 0.00 0.00 0.00 72 1015.4
20260508131041 45 69 2.0 4.0 0.00 0.00 0.00 72 1015.3
20260508130542 45 73 1.0 3.0 0.00 0.00 0.00 71 1015.3
20260508130048 45 73 1.0 4.0 0.00 0.00 0.00 71 1015.2
20260508125539 44 77 1.0 4.0 0.00 0.00 0.00 71 1015.1
20260508125038 44 0 1.0 4.0 0.00 0.00 0.00 71 1015.1
20260508124548 44 62 1.0 3.0 0.00 0.00 0.00 71 1015.0
20260508124038 44 0 0.0 3.0 0.00 0.00 0.00 70 1015.0
20260508123539 44 61 2.0 5.0 0.00 0.00 0.00 70 1014.9
20260508123112 44 62 1.0 5.0 0.00 0.00 0.00 69 1014.8
20260508122538 44 63 3.0 5.0 0.00 0.00 0.00 69 1014.7
20260508122042 45 46 2.0 4.0 0.00 0.00 0.00 69 1014.8
20260508121601 45 43 1.0 3.0 0.00 0.00 0.00 69 1014.7
20260508121038 45 71 1.0 3.0 0.00 0.00 0.00 69 1014.7
20260508120539 45 0 0.0 5.0 0.00 0.00 0.00 69 1014.6
20260508120108 45 0 1.0 5.0 0.00 0.00 0.00 69 1014.6
20260508115538 45 78 2.0 5.0 0.00 0.00 0.00 69 1014.5
20260508115038 45 76 1.0 4.0 0.00 0.00 0.00 69 1014.5
20260508114558 46 72 1.0 3.0 0.00 0.00 0.00 69 1014.5
20260508114038 46 71 1.0 3.0 0.00 0.00 0.00 69 1014.5
20260508113539 46 71 1.0 3.0 0.00 0.00 0.00 70 1014.5
20260508113100 46 0 0.0 3.0 0.00 0.00 0.00 70 1014.5
20260508112538 46 71 2.0 4.0 0.00 0.00 0.00 70 1014.5
20260508112039 46 88 2.0 5.0 0.00 0.00 0.00 70 1014.5
20260508111553 46 87 2.0 5.0 0.00 0.00 0.00 69 1014.4
20260508111039 46 90 2.0 5.0 0.00 0.00 0.00 70 1014.4
20260508110539 46 88 2.0 5.0 0.00 0.00 0.00 70 1014.4
20260508110100 45 82 1.0 5.0 0.00 0.00 0.00 70 1014.4
20260508105539 45 74 2.0 5.0 0.00 0.00 0.00 70 1014.4